| time (UTC) | temp F | wind direction | speed knots | gust knots | rain 1hr in | rain 24hr in | rain mn in | humidity % | barometer mb |
| 20260506024518 | 60 | 232 | 2.6 | 10.4 | 0.00 | 0.00 | 0.00 | 83 | 1011.1 |
| 20260506023018 | 60 | 197 | 1.7 | 8.7 | 0.00 | 0.00 | 0.00 | 82 | 1011.2 |
| 20260506021514 | 60 | 169 | 2.6 | 7.0 | 0.00 | 0.00 | 0.00 | 82 | 1011.1 |
| 20260506020011 | 60 | 255 | 1.7 | 7.8 | 0.00 | 0.00 | 0.00 | 80 | 1011.1 |
| 20260506014506 | 60 | 170 | 1.7 | 10.4 | 0.00 | 0.00 | 0.00 | 80 | 1011.0 |
| 20260506013003 | 60 | 146 | 2.6 | 12.2 | 0.00 | 0.00 | 0.00 | 79 | 1010.9 |
| 20260506011623 | 60 | 155 | 2.6 | 13.9 | 0.00 | 0.00 | 0.00 | 79 | 1010.8 |
| 20260506004549 | 61 | 211 | 3.5 | 12.2 | 0.00 | 0.00 | 0.00 | 77 | 1010.5 |
| 20260506003045 | 62 | 182 | 2.6 | 9.6 | 0.00 | 0.00 | 0.00 | 76 | 1010.3 |
| 20260506001543 | 63 | 178 | 2.6 | 7.0 | 0.00 | 0.00 | 0.00 | 75 | 1010.0 |
| 20260506000041 | 62 | 143 | 2.6 | 8.7 | 0.00 | 0.00 | 0.00 | 74 | 1009.8 |
| 20260505234532 | 63 | 202 | 4.3 | 11.3 | 0.00 | 0.00 | 0.00 | 74 | 1009.6 |
| 20260505233032 | 63 | 209 | 2.6 | 10.4 | 0.00 | 0.00 | 0.00 | 72 | 1009.2 |
| 20260505231527 | 63 | 170 | 4.3 | 9.6 | 0.00 | 0.00 | 0.00 | 73 | 1008.9 |
| 20260505230019 | 63 | 161 | 5.2 | 13.9 | 0.00 | 0.00 | 0.00 | 74 | 1008.9 |
| 20260505224514 | 62 | 178 | 3.5 | 10.4 | 0.00 | 0.00 | 0.00 | 74 | 1009.0 |
| 20260505223016 | 62 | 211 | 4.3 | 15.6 | 0.00 | 0.00 | 0.00 | 74 | 1008.8 |
| 20260505221505 | 63 | 163 | 5.2 | 13.9 | 0.00 | 0.00 | 0.00 | 72 | 1008.8 |
| 20260505220108 | 64 | 167 | 4.3 | 12.2 | 0.00 | 0.00 | 0.00 | 72 | 1008.6 |
| 20260505214558 | 64 | 187 | 4.3 | 13.9 | 0.00 | 0.00 | 0.00 | 71 | 1008.6 |
| 20260505213050 | 64 | 174 | 4.3 | 15.6 | 0.00 | 0.00 | 0.00 | 71 | 1008.7 |
| 20260505211546 | 64 | 221 | 4.3 | 13.9 | 0.00 | 0.00 | 0.00 | 71 | 1008.4 |
| 20260505210049 | 64 | 200 | 5.2 | 13.9 | 0.00 | 0.00 | 0.00 | 72 | 1008.4 |
| 20260505204542 | 64 | 226 | 3.5 | 13.9 | 0.00 | 0.00 | 0.00 | 72 | 1008.5 |
| 20260505203034 | 65 | 203 | 3.5 | 12.2 | 0.00 | 0.00 | 0.00 | 71 | 1008.6 |
| 20260505201528 | 65 | 165 | 3.5 | 7.0 | 0.00 | 0.00 | 0.00 | 70 | 1008.6 |
| 20260505200024 | 65 | 191 | 4.3 | 12.2 | 0.00 | 0.00 | 0.00 | 71 | 1008.8 |
| 20260505194522 | 65 | 157 | 4.3 | 10.4 | 0.00 | 0.00 | 0.00 | 71 | 1009.1 |
| 20260505193025 | 66 | 211 | 4.3 | 13.0 | 0.00 | 0.00 | 0.00 | 69 | 1009.2 |
| 20260505191512 | 65 | 115 | 3.5 | 9.6 | 0.00 | 0.00 | 0.00 | 71 | 1009.6 |
| 20260505190008 | 65 | 168 | 3.5 | 12.2 | 0.00 | 0.00 | 0.00 | 71 | 1009.8 |
| 20260505184502 | 65 | 151 | 3.5 | 13.9 | 0.00 | 0.00 | 0.00 | 71 | 1010.2 |
| 20260505183059 | 66 | 227 | 3.5 | 9.6 | 0.00 | 0.00 | 0.00 | 70 | 1010.3 |
| 20260505181553 | 66 | 161 | 3.5 | 12.2 | 0.00 | 0.00 | 0.00 | 71 | 1010.5 |
| 20260505180049 | 65 | 103 | 2.6 | 9.6 | 0.00 | 0.00 | 0.00 | 72 | 1010.5 |
| 20260505174544 | 66 | 148 | 3.5 | 10.4 | 0.00 | 0.00 | 0.00 | 72 | 1010.6 |
| 20260505173040 | 66 | 167 | 2.6 | 10.4 | 0.00 | 0.00 | 0.00 | 71 | 1010.7 |
| 20260505171544 | 67 | 177 | 0.9 | 10.4 | 0.00 | 0.00 | 0.00 | 70 | 1010.8 |
| 20260505170039 | 67 | 158 | 1.7 | 9.6 | 0.00 | 0.00 | 0.00 | 69 | 1010.8 |
| 20260505164553 | 68 | 231 | 0.9 | 7.8 | 0.00 | 0.00 | 0.00 | 69 | 1010.9 |
| 20260505163037 | 67 | 134 | 0.9 | 7.0 | 0.00 | 0.00 | 0.00 | 70 | 1010.9 |
| 20260505161548 | 69 | 252 | 1.7 | 7.0 | 0.00 | 0.00 | 0.00 | 68 | 1011.2 |
| 20260505153024 | 67 | 128 | 0.9 | 4.3 | 0.00 | 0.00 | 0.00 | 71 | 1011.4 |
| 20260505151519 | 66 | 127 | 1.7 | 7.8 | 0.00 | 0.00 | 0.00 | 72 | 1011.6 |
| 20260505124559 | 61 | 139 | 0.0 | 4.3 | 0.00 | 0.00 | 0.00 | 83 | 1011.2 |
| 20260505123055 | 59 | 142 | 0.9 | 3.5 | 0.00 | 0.00 | 0.00 | 87 | 1011.2 |
| 20260505121546 | 57 | 143 | 0.9 | 3.5 | 0.00 | 0.00 | 0.00 | 89 | 1011.2 |
| 20260505120059 | 57 | 144 | 0.0 | 3.5 | 0.00 | 0.00 | 0.00 | 91 | 1011.4 |
| 20260505114541 | 56 | 146 | 1.7 | 5.2 | 0.00 | 0.00 | 0.00 | 92 | 1011.5 |
| 20260505113045 | 55 | 151 | 0.0 | 2.6 | 0.00 | 0.00 | 0.00 | 93 | 1011.5 |
| 20260505111538 | 54 | 159 | 0.0 | 1.7 | 0.00 | 0.00 | 0.00 | 95 | 1011.4 |
| 20260505101534 | 53 | 159 | 0.0 | 2.6 | 0.00 | 0.00 | 0.00 | 94 | 1010.6 |
| 20260505100133 | 52 | 159 | 0.0 | 2.6 | 0.00 | 0.00 | 0.00 | 94 | 1010.5 |
| 20260505094531 | 52 | 159 | 0.0 | 1.7 | 0.00 | 0.00 | 0.00 | 93 | 1010.4 |
| 20260505093029 | 52 | 159 | 0.0 | 0.0 | 0.00 | 0.00 | 0.00 | 93 | 1010.5 |
| 20260505091528 | 53 | 159 | 0.0 | 0.9 | 0.00 | 0.00 | 0.00 | 93 | 1010.5 |
| 20260505090027 | 53 | 159 | 0.0 | 3.5 | 0.00 | 0.00 | 0.00 | 93 | 1010.6 |
| 20260505084541 | 53 | 159 | 0.0 | 0.9 | 0.00 | 0.00 | 0.00 | 92 | 1010.5 |
| 20260505083023 | 53 | 159 | 0.9 | 5.2 | 0.00 | 0.00 | 0.00 | 92 | 1010.4 |
| 20260505081523 | 53 | 164 | 0.0 | 2.6 | 0.00 | 0.00 | 0.00 | 92 | 1010.7 |
| 20260505080022 | 53 | 163 | 0.9 | 6.1 | 0.00 | 0.00 | 0.00 | 92 | 1010.6 |
| 20260505074521 | 53 | 171 | 0.0 | 2.6 | 0.00 | 0.00 | 0.00 | 92 | 1010.4 |
| 20260505073021 | 53 | 159 | 0.0 | 4.3 | 0.00 | 0.00 | 0.00 | 92 | 1010.5 |
| 20260505071520 | 53 | 157 | 0.0 | 4.3 | 0.00 | 0.00 | 0.00 | 91 | 1010.5 |
| 20260505070018 | 53 | 156 | 0.0 | 4.3 | 0.00 | 0.00 | 0.00 | 91 | 1010.4 |
| 20260505064519 | 54 | 168 | 0.0 | 2.6 | 0.00 | 0.00 | 0.00 | 91 | 1010.5 |
| 20260505063015 | 54 | 160 | 0.0 | 2.6 | 0.00 | 0.00 | 0.00 | 91 | 1010.6 |
| 20260505061519 | 54 | 150 | 0.0 | 4.3 | 0.00 | 0.00 | 0.00 | 91 | 1010.7 |
| 20260505060012 | 54 | 142 | 0.9 | 7.0 | 0.00 | 0.00 | 0.00 | 90 | 1010.8 |
| 20260505054510 | 54 | 161 | 0.9 | 6.1 | 0.00 | 0.00 | 0.00 | 90 | 1010.9 |
| 20260505053008 | 54 | 146 | 0.0 | 6.1 | 0.00 | 0.00 | 0.00 | 90 | 1011.0 |
| 20260505051515 | 54 | 144 | 0.0 | 5.2 | 0.00 | 0.00 | 0.00 | 89 | 1011.0 |
| 20260505041502 | 55 | 159 | 0.9 | 6.1 | 0.00 | 0.00 | 0.00 | 86 | 1011.3 |
| 20260505040059 | 55 | 153 | 0.0 | 6.1 | 0.00 | 0.00 | 0.00 | 85 | 1011.3 |
| 20260505034616 | 56 | 166 | 0.9 | 7.0 | 0.00 | 0.00 | 0.00 | 84 | 1011.2 |
| 20260505033057 | 56 | 157 | 0.0 | 7.0 | 0.00 | 0.00 | 0.00 | 83 | 1011.2 |
| 20260505031558 | 56 | 151 | 0.0 | 2.6 | 0.00 | 0.00 | 0.00 | 82 | 1011.3 |
| 20260505030056 | 56 | 155 | 0.0 | 4.3 | 0.00 | 0.00 | 0.00 | 83 | 1011.3 |